Torna al catalogo

STARLINK-3194

AttivoComunicazioniVLEO
NORAD 49758·PAYLOAD·🇺🇸 United States

Lanciato Dec 2, 2021 da Cape Canaveral Space Force Station

Loading…

Prossimi Passaggi (prossime 24 ore)

TLE

AggiornatoSource: CelesTrak SupGP

Epoca: Sep 14, 2026, 13:29 UTC

1 49758C 21115AL  26257.56229167 -.00010620  00000+0 -31389-3 0  2577
2 49758  53.1606 357.1465 0001270  73.7874  92.2512 15.34384723    15

Traccia STARLINK-3194 in tempo reale con AllMySat

Download on the App Store